DLH16WC EDDF-EDDH

Flight info

Callsign DLH16WC
Flight time N/A
Altitude 35000
Route MARUN7F/25C MARUN Y150 TOLGI DCT SAS/N0481F340 P605 NOLGO NOLGO3D
Aircraft A359/H-SDE2E3GHIJ3J4J5LM1ORWXY/LB1D1

Departure

Time 2026-04-18 11:40
Airport Frankfurt Main Airport (EDDF)

Arrival

Time N/A
Airport Hamburg Helmut Schmidt Airport (EDDH)
Time Latitude Longitude Altitude Speed Heading
2026-04-18 11:11 50.04751 8.57125 371 ft 0 kts 120°
2026-04-18 11:26 50.04758 8.57106 370 ft 4 kts 121°
2026-04-18 11:27 50.04773 8.57071 369 ft 4 kts 128°
2026-04-18 11:27 50.04791 8.57044 365 ft 4 kts 163°
2026-04-18 11:27 50.04804 8.57042 362 ft 1 kts 204°
2026-04-18 11:27 50.04782 8.57026 363 ft 4 kts 204°
2026-04-18 11:28 50.04758 8.57009 366 ft 4 kts 204°
2026-04-18 11:28 50.04733 8.56991 368 ft 4 kts 205°
2026-04-18 11:28 50.04714 8.56977 366 ft 4 kts 205°
2026-04-18 11:28 50.04689 8.56960 370 ft 4 kts 205°
2026-04-18 11:29 50.04669 8.56945 371 ft 0 kts 205°
2026-04-18 11:32 50.04664 8.56942 371 ft 3 kts 205°
2026-04-18 11:32 50.04641 8.56926 369 ft 5 kts 202°
2026-04-18 11:32 50.04595 8.56906 368 ft 8 kts 194°
2026-04-18 11:32 50.04543 8.56888 370 ft 8 kts 193°
2026-04-18 11:33 50.04481 8.56865 370 ft 11 kts 193°
2026-04-18 11:33 50.04411 8.56846 371 ft 13 kts 189°
2026-04-18 11:33 50.04331 8.56826 366 ft 9 kts 189°
2026-04-18 11:33 50.04282 8.56836 373 ft 5 kts 127°
2026-04-18 11:34 50.04281 8.56906 372 ft 8 kts 83°
2026-04-18 11:34 50.04301 8.57006 371 ft 11 kts 70°
2026-04-18 11:34 50.04328 8.57121 373 ft 12 kts 70°
2026-04-18 11:34 50.04360 8.57259 373 ft 15 kts 70°
2026-04-18 11:35 50.04399 8.57420 374 ft 17 kts 69°
2026-04-18 11:35 50.04443 8.57601 375 ft 17 kts 70°
2026-04-18 11:35 50.04487 8.57786 375 ft 18 kts 70°
2026-04-18 11:35 50.04533 8.57980 376 ft 20 kts 70°
2026-04-18 11:36 50.04573 8.58148 377 ft 16 kts 69°
2026-04-18 11:36 50.04609 8.58297 376 ft 14 kts 69°
2026-04-18 11:36 50.04641 8.58431 375 ft 12 kts 69°
2026-04-18 11:36 50.04654 8.58532 375 ft 9 kts 107°
2026-04-18 11:37 50.04617 8.58575 375 ft 5 kts 156°
2026-04-18 11:37 50.04612 8.58578 375 ft 0 kts 159°
2026-04-18 11:37 50.04611 8.58578 375 ft 1 kts 159°
2026-04-18 11:38 50.04570 8.58603 376 ft 12 kts 159°
2026-04-18 11:38 50.04500 8.58606 377 ft 10 kts 216°
2026-04-18 11:38 50.04480 8.58555 376 ft 0 kts 248°
2026-04-18 11:39 50.04438 8.58384 376 ft 50 kts 249°
2026-04-18 11:39 50.04225 8.57491 375 ft 123 kts 250°
2026-04-18 11:39 50.03859 8.55948 492 ft 167 kts 251°
2026-04-18 11:40 50.03467 8.54324 1428 ft 156 kts 250°
2026-04-18 11:40 50.03086 8.52741 2185 ft 161 kts 251°
2026-04-18 11:40 50.02741 8.51000 2448 ft 182 kts 261°
2026-04-18 11:40 50.02751 8.48909 2690 ft 206 kts 277°
2026-04-18 11:41 50.02943 8.46580 3170 ft 219 kts 278°
2026-04-18 11:41 50.03166 8.44203 3869 ft 223 kts 280°
2026-04-18 11:41 50.03699 8.41945 4573 ft 226 kts 303°
2026-04-18 11:41 50.04848 8.40157 4972 ft 245 kts 320°
2026-04-18 11:42 50.06256 8.38519 5394 ft 258 kts 322°
2026-04-18 11:42 50.07722 8.36835 5975 ft 266 kts 321°
2026-04-18 11:42 50.09220 8.35097 6600 ft 272 kts 321°
2026-04-18 11:42 50.10843 8.33528 7226 ft 278 kts 334°
2026-04-18 11:43 50.12749 8.32972 7955 ft 284 kts
2026-04-18 11:43 50.14689 8.33581 8690 ft 287 kts 14°
2026-04-18 11:43 50.16583 8.34493 9388 ft 290 kts 15°
2026-04-18 11:43 50.18515 8.35442 10123 ft 292 kts 15°
2026-04-18 11:44 50.20489 8.36397 10577 ft 306 kts 11°
2026-04-18 11:44 50.22205 8.37156 12688 ft 179 kts 48°
2026-04-18 11:44 50.23181 8.37788 11041 ft 191 kts 354°
2026-04-18 11:44 50.24665 8.38714 9962 ft 216 kts 19°
2026-04-18 11:45 50.25775 8.39529 11597 ft 151 kts 342°
2026-04-18 11:45 50.26402 8.39229 8957 ft 43 kts 153°
2026-04-18 11:45 50.25932 8.39459 2716 ft 88 kts 50°
2026-04-18 11:45 50.25963 8.39512 1436 ft 1 kts 184°